DW7783 Weather Reports


Display with metric or nautical units.
time (UTC)temp
F
wind
direction
speed
MPH
gust
MPH
rain 1hr
in
rain 24hr
in
rain mn
in
humidity
%
barometer
mb
20180122161925 65 212 3.0 0.0 0.00 0.00 0.00 46 1021.5
20180122160425 65 221 3.0 0.0 0.00 0.00 0.00 46 1021.3
20180122154922 65 221 4.0 0.0 0.00 0.00 0.00 46 1021.1
20180122153421 65 216 3.0 0.0 0.00 0.00 0.00 45 1021.0
20180122151920 65 204 5.0 0.0 0.00 0.00 0.00 45 1021.0
20180122150420 65 190 4.0 0.0 0.00 0.00 0.00 45 1021.0
20180122144921 65 207 4.0 0.0 0.00 0.00 0.00 45 1021.1
20180122143417 64 230 4.0 0.0 0.00 0.00 0.00 46 1021.2
20180122141915 64 210 4.0 0.0 0.00 0.00 0.00 45 1021.5
20180122140416 64 198 3.0 0.0 0.00 0.00 0.00 46 1021.6
20180122134910 63 166 3.0 0.0 0.00 0.00 0.00 46 1021.7
20180122133407 62 135 2.0 0.0 0.00 0.00 0.00 50 1022.1
20180122131906 61 209 2.0 0.0 0.00 0.00 0.00 49 1022.3
20180122130405 61 202 3.0 0.0 0.00 0.00 0.00 50 1022.6
20180122124902 61 192 3.0 0.0 0.00 0.00 0.00 51 1022.9
20180122123358 60 186 3.0 0.0 0.00 0.00 0.00 50 1023.4
20180122121856 59 148 3.0 0.0 0.00 0.00 0.00 52 1023.6
20180122120353 59 192 3.0 0.0 0.00 0.00 0.00 52 1023.8
20180122114850 59 198 2.0 0.0 0.00 0.00 0.00 52 1024.1
20180122113346 58 182 2.0 0.0 0.00 0.00 0.00 53 1024.2
20180122111846 57 168 2.0 0.0 0.00 0.00 0.00 54 1024.8
20180122110345 56 137 2.0 0.0 0.00 0.00 0.00 56 1024.9
20180122104838 56 86 1.0 0.0 0.00 0.00 0.00 56 1024.9
20180122103338 55 73 0.0 0.0 0.00 0.00 0.00 56 1025.1
20180122101834 52 73 1.0 0.0 0.00 0.00 0.00 61 1025.7
20180122100327 51 58 1.0 0.0 0.00 0.00 0.00 62 1025.6
20180122094821 49 54 2.0 0.0 0.00 0.00 0.00 67 1025.8
20180122093318 46 58 2.0 0.0 0.00 0.00 0.00 71 1026.1
20180122091812 45 57 2.0 0.0 0.00 0.00 0.00 73 1025.8
20180122090313 43 67 1.0 0.0 0.00 0.00 0.00 76 1025.8
20180122084807 41 51 2.0 0.0 0.00 0.00 0.00 80 1026.1
20180122083259 40 61 2.0 0.0 0.00 0.00 0.00 83 1026.0
20180122081754 39 58 2.0 0.0 0.00 0.00 0.00 86 1026.1
20180122080251 38 58 2.0 0.0 0.00 0.00 0.00 89 1026.0
20180122074746 36 56 2.0 0.0 0.00 0.00 0.00 91 1026.2
20180122073245 36 56 2.0 0.0 0.00 0.00 0.00 90 1026.2
20180122071744 36 57 2.0 0.0 0.00 0.00 0.00 90 1026.1
20180122070242 36 56 1.0 0.0 0.00 0.00 0.00 89 1025.8
20180122064739 37 71 1.0 0.0 0.00 0.00 0.00 89 1025.6
20180122063236 37 50 1.0 0.0 0.00 0.00 0.00 88 1025.4
20180122061735 38 48 1.0 0.0 0.00 0.00 0.00 88 1025.4
20180122060235 38 69 1.0 0.0 0.00 0.00 0.00 87 1025.0
20180122054729 39 50 1.0 0.0 0.00 0.00 0.00 86 1025.0
20180122053229 39 46 1.0 0.0 0.00 0.00 0.00 85 1024.8
20180122051726 40 40 1.0 0.0 0.00 0.00 0.00 85 1024.7
20180122050224 40 44 1.0 0.0 0.00 0.00 0.00 86 1024.3
20180122044724 40 52 1.0 0.0 0.00 0.00 0.00 85 1024.4
20180122043222 40 52 0.0 0.0 0.00 0.00 0.00 83 1024.2
20180122041716 41 52 1.0 0.0 0.00 0.00 0.00 81 1024.2
20180122040221 42 53 2.0 0.0 0.00 0.00 0.00 81 1023.9
20180122034715 41 64 2.0 0.0 0.00 0.00 0.00 82 1024.0
20180122033213 41 54 1.0 0.0 0.00 0.00 0.00 82 1024.0
20180122031714 42 53 2.0 0.0 0.00 0.00 0.00 81 1024.2
20180122030229 42 54 2.0 0.0 0.00 0.00 0.00 80 1024.0
20180122024713 43 63 2.0 0.0 0.00 0.00 0.00 78 1024.0
20180122023211 43 52 3.0 0.0 0.00 0.00 0.00 78 1024.0
20180122021709 43 54 2.0 0.0 0.00 0.00 0.00 78 1024.1
20180122020205 42 57 2.0 0.0 0.00 0.00 0.00 80 1024.5
20180122014705 42 58 1.0 0.0 0.00 0.00 0.00 80 1024.4
20180122013203 43 54 2.0 0.0 0.00 0.00 0.00 79 1024.3
20180122011702 42 63 0.0 0.0 0.00 0.00 0.00 80 1024.6
20180122010203 43 63 2.0 0.0 0.00 0.00 0.00 79 1024.8
20180122004658 42 61 2.0 0.0 0.00 0.00 0.00 79 1025.1
20180122003156 42 71 1.0 0.0 0.00 0.00 0.00 79 1025.3
20180122001659 43 50 1.0 0.0 0.00 0.00 0.00 78 1025.4
20180122000154 43 47 3.0 0.0 0.00 0.00 0.00 77 1025.4
20180121234652 43 48 4.0 0.0 0.00 0.00 0.00 77 1025.4
20180121233149 44 40 4.0 0.0 0.00 0.00 0.00 75 1025.4
20180121231646 44 58 4.0 0.0 0.00 0.00 0.00 75 1025.3
20180121230142 45 40 4.0 0.0 0.00 0.00 0.00 74 1025.9
20180121224641 45 53 4.0 0.0 0.00 0.00 0.00 73 1025.9
20180121223141 45 50 3.0 0.0 0.00 0.00 0.00 74 1025.9
20180121221644 46 56 3.0 0.0 0.00 0.00 0.00 72 1025.7
20180121220141 47 45 2.0 0.0 0.00 0.00 0.00 71 1025.9
20180121214642 48 61 2.0 0.0 0.00 0.00 0.00 69 1025.7
20180121213141 48 42 2.0 0.0 0.00 0.00 0.00 68 1025.7
20180121211642 49 21 2.0 0.0 0.00 0.00 0.00 67 1025.7
20180121210141 49 29 2.0 0.0 0.00 0.00 0.00 67 1026.3
20180121204638 50 3 2.0 0.0 0.00 0.00 0.00 64 1025.9
20180121203138 50 27 2.0 0.0 0.00 0.00 0.00 65 1025.9
20180121201637 50 49 1.0 0.0 0.00 0.00 0.00 65 1025.9
20180121200136 51 137 0.0 0.0 0.00 0.00 0.00 63 1026.3
20180121194636 52 12 1.0 0.0 0.00 0.00 0.00 62 1026.0
20180121193136 53 35 2.0 0.0 0.00 0.00 0.00 59 1026.0
20180121191638 53 36 1.0 0.0 0.00 0.00 0.00 61 1026.0
20180121190138 52 34 1.0 0.0 0.00 0.00 0.00 61 1026.0
20180121184634 53 52 2.0 0.0 0.00 0.00 0.00 60 1025.7
20180121183137 54 48 0.0 0.0 0.00 0.00 0.00 58 1025.5
20180121181634 55 27 4.0 0.0 0.00 0.00 0.00 54 1025.4
20180121180133 55 31 3.0 0.0 0.00 0.00 0.00 54 1025.2
20180121174636 56 43 2.0 0.0 0.00 0.00 0.00 53 1024.8
20180121173135 57 7 3.0 0.0 0.00 0.00 0.00 51 1024.5
20180121171635 59 17 3.0 0.0 0.00 0.00 0.00 48 1024.2
20180121170131 61 1 3.0 0.0 0.00 0.00 0.00 45 1024.0
20180121164630 62 331 3.0 0.0 0.00 0.00 0.00 43 1023.9
20180121163129 63 338 4.0 0.0 0.00 0.00 0.00 41 1023.8